User: anonymous   Login
Location: Beang
(6.6177°N, 10.9863°W)
Time: 12:04:41
(UTC+00:00)
Language:

Delta 168 - Orbit

View from above orbital plane
View from above orbital plane
View from above satellite
View from above satellite

Ground track
Ground track

The orbit data is extracted from the following two-line orbital elements,

1 14051U 83041B   20226.96413678  .00001403  00000-0  11055-3 0  9996
2 14051  25.3375 337.2921 1089339 205.2521 149.0604 13.10203080729779
Epoch (UTC): 13 August 2020 23:08:21
Eccentricity: 0.1089339
inclination: 25.3375°
perigee height: 394 km
apogee height: 2050 km
right ascension of ascending node: 337.2921°
argument of perigee: 205.2521°
revolutions per day: 13.10203080
mean anomaly at epoch: 149.0604°
orbit number at epoch: 72977

The dashed part of the orbit path shows where the satellite is in the earth's shadow,  

DLR